Regional Weather Roundup
Issued by NWS

Home | Current Version | Previous Version | Graphics & Text | Print | Product List | Glossary Off
Versions: 1 2 3 4 5 6 7 8 9 10 11 12 13 14 15 16 17 18 19 20 21 22 23 24 25 26 27 28 29 30 31 32 33 34 35 36 37 38 39 40 41 42 43 44 45 46 47 48 49 50

000
ASUS43 KMKX 260020
RWRWI

WISCONSIN REGIONAL WEATHER ROUNDUP
NATIONAL WEATHER SERVICE MILWAUKEE/SULLIVAN WI
600 PM CST SUN JAN 25 2015

NOTE: "FAIR" INDICATES FEW OR NO CLOUDS BELOW 12,000 FEET WITH NO
SIGNIFICANT WEATHER AND/OR OBSTRUCTIONS TO VISIBILITY.

WIZ001-002-006>008-014>016-023>028-260100-
NORTHWEST WISCONSIN

CITY           SKY/WX    TMP DP  RH WIND       PRES   REMARKS
SUPERIOR ARPT  CLEAR     20  13  75 CALM      30.08R
6HR MIN TEMP:  20; 6HR MAX TEMP:  24;

ASHLAND        CLOUDY    13   8  81 N5        30.07R WCI   5
6HR MIN TEMP:  13; 6HR MAX TEMP:  21;

HAYWARD        MOCLDY    16   7  67 CALM      30.03R
6HR MIN TEMP:  16; 6HR MAX TEMP:  23;

SIREN          CLOUDY    24  14  66 CALM      30.05R
6HR MIN TEMP:  23; 6HR MAX TEMP:  27;

CUMBERLAND     CLOUDY    18  10  73 SW3       30.03R
RICE LAKE      CLOUDY    20  10  65 CALM      30.04R
6HR MIN TEMP:  20; 6HR MAX TEMP:  23;

CHETEK         CLOUDY    19  10  68 CALM      30.03S
6HR MIN TEMP:  19; 6HR MAX TEMP:  22;

LADYSMITH      PTCLDY    18   9  68 CALM      30.03R
6HR MIN TEMP:  18; 6HR MAX TEMP:  23;

EAU CLAIRE     CLOUDY    21  10  62 CALM      30.04R
6HR MIN TEMP:  21; 6HR MAX TEMP:  24;

MENOMONIE      PTCLDY    22  12  64 E3        30.04S
6HR MIN TEMP:  22; 6HR MAX TEMP:  26;

NEW RICHMOND   PTCLDY    19  10  70 SW3       30.06R
6HR MIN TEMP:  19; 6HR MAX TEMP:  24;

OSCEOLA        CLEAR     21  13  71 S6        30.08R WCI  13
6HR MIN TEMP:  20; 6HR MAX TEMP:  27;

$$

WIZ003>005-009-010-017-018-260100-
NORTH CENTRAL WISCONSIN

CITY           SKY/WX    TMP DP  RH WIND       PRES   REMARKS
MANITOWISH WTR CLOUDY    13   5  71 CALM      29.98S
6HR MIN TEMP:  13; 6HR MAX TEMP:  19;

ARBOR VITAE    CLOUDY    17   7  65 CALM      29.98S
6HR MIN TEMP:  17; 6HR MAX TEMP:  22;

WOODRUFF       CLOUDY    17   7  65 CALM      29.98S
6HR MIN TEMP:  17; 6HR MAX TEMP:  22;

RHINELANDER    CLOUDY    17   4  56 CALM      29.98S
6HR MIN TEMP:  15; 6HR MAX TEMP:  19;

EAGLE RIVER    CLOUDY    15   4  62 CALM      29.97S
6HR MIN TEMP:  15; 6HR MAX TEMP:  20;

LAND O LAKES   CLOUDY    13   6  75 CALM      29.99R
6HR MIN TEMP:  13; 6HR MAX TEMP:  19;

PHILLIPS       CLOUDY    15   6  68 CALM      29.99R
6HR MIN TEMP:  15; 6HR MAX TEMP:  19;

TOMAHAWK       CLOUDY    16   7  67 CALM      30.00R
6HR MIN TEMP:  15; 6HR MAX TEMP:  21;

MEDFORD        CLOUDY    17   9  72 S5        29.99R WCI  10
6HR MIN TEMP:  17; 6HR MAX TEMP:  21;

MERRILL        CLOUDY    18   7  61 CALM      30.00S
6HR MIN TEMP:  18; 6HR MAX TEMP:  22;

$$

WIZ029-030-035-036-043>047-260100-
CENTRAL WISCONSIN

CITY           SKY/WX    TMP DP  RH WIND       PRES   REMARKS
WAUSAU         CLOUDY    16   6  65 CALM      30.00S
6HR MIN TEMP:  16; 6HR MAX TEMP:  22;

MOSINEE        NOT AVBL
MARSHFIELD     CLOUDY    20   9  62 E3        30.01S
6HR MIN TEMP:  19; 6HR MAX TEMP:  22;

STEVENS POINT  CLOUDY    13   4  67 CALM      30.03S
6HR MIN TEMP:  13; 6HR MAX TEMP:  19;

WAUPACA        CLEAR     19   8  60 CALM      30.06S
6HR MIN TEMP:  19; 6HR MAX TEMP:  25;

WAUTOMA        FAIR      18   8  64 CALM      30.06R
6HR MIN TEMP:  18; 6HR MAX TEMP:  24; 6HR PCP: TRACE;

WISC RAPIDS    CLOUDY    18   5  57 SE3       30.04F
6HR MIN TEMP:  18; 6HR MAX TEMP:  22;

CAMP DOUGLAS   CLOUDY    21   9  60 NE6       30.04R WCI  13
6HR MIN TEMP:  21; 6HR MAX TEMP:  25;

$$

WIZ011>013-019>022-031-037>040-048>050-260100-
NORTHEAST WISCONSIN

CITY           SKY/WX    TMP DP  RH WIND       PRES   REMARKS
ANTIGO         CLOUDY    14   7  72 CALM      29.99S
6HR MIN TEMP:  14; 6HR MAX TEMP:  19;

SHAWANO        CLOUDY    19   7  61 CALM      30.06S
6HR MIN TEMP:  17; 6HR MAX TEMP:  24;

OCONTO         CLEAR     15   6  69 MISG      30.08S
6HR MIN TEMP:  15; 6HR MAX TEMP:  21;

STURGEON BAY   CLEAR     14   3  62 N3        30.08S
6HR MIN TEMP:  16; 6HR MAX TEMP:  19;

GREEN BAY      CLEAR     16   9  74 NE7       30.07R WCI   6
6HR MIN TEMP:  16; 6HR MAX TEMP:  22;

MANITOWOC      MOCLDY    19  13  77 N6        30.06R WCI  11
6HR MIN TEMP:  19; 6HR MAX TEMP:  24;

APPLETON       PTCLDY    18   7  62 E6        30.05S WCI   9
CLINTONVILLE   CLOUDY    18   9  68 CALM      30.06R
OSHKOSH        CLEAR     18  10  71 NE13      30.05R WCI   5
6HR MIN TEMP:  18; 6HR MAX TEMP:  22;

$$

WIZ032>034-041-042-053>061-260100-
SOUTHWEST WISCONSIN

CITY           SKY/WX    TMP DP  RH WIND       PRES   REMARKS
LA CROSSE      PTCLDY    24  14  65 N5        30.05R WCI  18
6HR MIN TEMP:  24; 6HR MAX TEMP:  31;

SPARTA         CLOUDY    23  12  63 E3        30.04S
6HR MIN TEMP:  22; 6HR MAX TEMP:  27;

VIROQUA        MOCLDY    20  12  71 E6        30.00R WCI  13
6HR MIN TEMP:  20; 6HR MAX TEMP:  26;

BOSCOBEL       CLEAR     23  11  60 NE5       30.05R WCI  17
6HR MIN TEMP:  23; 6HR MAX TEMP:  29;

PRAIRIE DU CHI CLEAR     25  13  61 NE5       30.04R WCI  19
6HR MIN TEMP:  25; 6HR MAX TEMP:  30;

PLATTEVILLE    CLEAR     19  14  79 N8        30.02R WCI   9
6HR MIN TEMP:  19; 6HR MAX TEMP:  25;

$$

WIZ056-057-062-063-064-067-068-260100-
SOUTH CENTRAL WISCONSIN

CITY           SKY/WX    TMP DP  RH WIND       PRES   REMARKS
REEDSBURG      MOCLDY    20  10  66 NE3       30.04R
6HR MIN TEMP:  20; 6HR MAX TEMP:  23;

BARABOO/DELLS  CLEAR     18  10  69 NE5       30.04R WCI  11
6HR MIN TEMP:  18; 6HR MAX TEMP:  24;

LONE ROCK      MOCLDY    20  10  65 CALM      30.05R
6HR MIN TEMP:  19; 6HR MAX TEMP:  25;

MINERAL POINT  CLEAR     21  12  68 N7        30.01R WCI  13
MADISON        PTCLDY    19  11  70 N10       30.02R WCI   7
6HR MIN TEMP:  19; 6HR MAX TEMP:  26;

MIDDLETON      CLEAR     21  13  71 N8        30.03R WCI  12
6HR MIN TEMP:  21; 6HR MAX TEMP:  27;

WATERTOWN      CLEAR     19  13  79 N6        30.01R WCI  10
6HR MIN TEMP:  19; 6HR MAX TEMP:  27;

MONROE         CLEAR     21  16  79 N14       29.98R WCI   8
JANESVILLE     CLEAR     25  10  54 NE12      30.00R WCI  14
$$

WIZ051-052-058>065-066-070>072-260100-
SOUTHEAST WISCONSIN

CITY           SKY/WX    TMP DP  RH WIND       PRES   REMARKS
MILWAUKEE      MOCLDY    25  13  60 N17       30.00R WCI  12
6HR MIN TEMP:  24; 6HR MAX TEMP:  26;

WAUKESHA       CLEAR     19  10  68 NE16G25   30.01R WCI   5
MILWAUKEE/TIMM PTCLDY    21  14  73 N8        30.02R WCI  12
RACINE         PTCLDY    25  14  63 N16G22    30.00R WCI  12
6HR MIN TEMP:  24; 6HR MAX TEMP:  29;

BURLINGTON     CLEAR     20  12  71 N9        29.99R WCI   9
6HR MIN TEMP:  20; 6HR MAX TEMP:  26;

KENOSHA        PTCLDY    23  15  71 N12       29.98R WCI  12
6HR MIN TEMP:  23; 6HR MAX TEMP:  28;

FOND DU LAC    CLEAR     17  10  74 NE13      30.04R WCI   4
6HR MIN TEMP:  17; 6HR MAX TEMP:  24;

SHEBOYGAN      MOCLDY    20  11  68 N8        30.03R WCI  10
6HR MIN TEMP:  20; 6HR MAX TEMP:  24;

WEST BEND      PTCLDY    21  12  68 N8        30.01R WCI  12
JUNEAU         CLEAR     17  11  79 N10       30.03R WCI   4
6HR MIN TEMP:  17; 6HR MAX TEMP:  27;

$$

LSZ147-162-260100-
LAKE SUPERIOR

STATION/POSITION TIME  TEMP    WIND        PRES    WAVE
                       AIR SEA DIR/SP/G            HT/PER
                 (UTC) (F)     (DEG/KT/KT) (MB)    (FT/S)
DEVILS ISLAND    0000   20     250/  1/  2 1020.1R
PORT WING        2340   21      CALM  /  2 1019.0R
SAXON HARBOR     2300   21      CALM  /  3 1017.6
$$

LMZ867-665-643>646-260100-
LAKE MICHIGAN

STATION/POSITION TIME  TEMP    WIND        PRES    WAVE



USA.gov is the U.S. government's official web portal to all federal, state and local government web resources and services.